Location: Vancouver
(49.2500°N, 123.1330°W)
Time: 19:40:09
(UTC-07:00)

AO-27 - Visible Passes

Search period start: 23 April 2014 00:00
Search period end: 03 May 2014 00:00
Orbit: 786 x 799 km, 98.7° (Epoch: 22 April)

Date Brightness Start Highest point End Pass type
(mag) Time Alt. Az. Time Alt. Az. Time Alt. Az.
23 Apr 9.1 02:42:19 10° NE 02:46:51 30° E 02:48:47 23° SE visible
23 Apr 8.2 04:21:37 10° N 04:26:32 44° WNW 04:29:34 22° SW visible
24 Apr 9.7 02:14:21 10° NE 02:17:47 18° E 02:19:46 15° ESE visible
24 Apr 7.6 03:52:41 10° NNE 03:57:53 74° WNW 04:00:33 29° SSW visible
25 Apr 7.9 03:23:56 10° NNE 03:29:06 66° ESE 03:31:32 31° S visible
25 Apr 9.1 05:04:16 10° N 05:08:11 22° WNW 05:12:06 10° WSW visible
26 Apr 8.7 02:55:23 10° NNE 03:00:13 38° E 03:02:30 25° SE visible
26 Apr 8.5 04:35:02 10° N 04:39:42 35° WNW 04:43:17 16° WSW visible
27 Apr 9.5 02:27:10 10° NE 02:31:12 22° E 02:33:29 17° SE visible
27 Apr 7.8 04:06:00 10° N 04:11:06 59° WNW 04:14:16 23° SW visible
28 Apr 10.0 01:59:45 10° ENE 02:02:03 13° E 02:04:21 10° ESE visible
28 Apr 7.6 03:37:10 10° NNE 03:42:23 84° ESE 03:45:15 28° SSW visible
28 Apr 9.4 05:17:52 10° NNW 05:21:17 18° NW 05:24:42 10° W visible
29 Apr 8.3 03:08:30 10° NNE 03:13:33 49° E 03:16:13 26° SSE visible
29 Apr 8.8 04:48:28 10° N 04:52:51 28° WNW 04:57:00 11° WSW visible
30 Apr 9.2 02:40:07 10° NE 02:44:35 29° E 02:47:11 19° SE visible
30 Apr 8.1 04:19:21 10° N 04:24:18 46° WNW 04:27:58 17° SW visible
01 May 9.8 02:12:12 10° NE 02:15:30 17° E 02:18:09 12° ESE visible
01 May 7.6 03:50:26 10° NNE 03:55:38 78° WNW 03:58:56 23° SSW visible
02 May 8.0 03:21:41 10° NNE 03:26:51 63° ESE 03:29:54 25° S visible
02 May 9.1 05:01:58 10° N 05:05:58 23° WNW 05:09:59 10° WSW visible
